period_start,C,m1,H,J0,J1,J2,J3,J4,J5,JA,JB,JC,JD,JJ,JK,JN,#
2017-01-13 00:00:33,0.10,6.11,0.00,21.14,25.42,28.79,14.91,49.12,1040.52,2032.93,1751.60,1899.85,2175.45,599.99,613.88,17.38,0000 0000 0000 0000 000000
2017-01-13 00:05:34,0.10,6.12,0.00,21.15,25.42,28.80,14.96,49.20,1040.54,2032.90,1750.47,1899.06,2174.83,599.80,613.63,17.43,0000 0000 0000 0000 000000
2017-01-13 00:10:35,0.12,6.12,0.00,21.15,25.43,28.82,15.04,49.24,1040.53,2032.91,1749.59,1898.31,2174.01,600.18,614.05,17.48,0000 0000 0000 0000 000000
2017-01-13 00:15:36,0.10,6.13,0.00,21.15,25.43,28.90,14.95,49.27,1040.51,2032.89,1748.56,1897.67,2173.13,600.03,613.85,17.53,0000 0000 0000 0000 000000
2017-01-13 00:20:37,0.11,6.14,0.00,21.15,25.43,28.95,15.02,49.31,1040.54,2032.96,1747.59,1897.00,2172.34,599.99,613.89,17.58,0000 0000 0000 0000 000000
2017-01-13 00:25:39,0.11,6.14,0.00,21.16,25.44,28.81,14.99,49.14,1040.45,2032.97,1746.74,1896.20,2171.51,600.04,613.81,17.63,0000 0000 0000 0000 000000
2017-01-13 00:30:40,0.08,6.15,0.00,21.15,25.44,28.75,15.00,49.20,1040.25,2032.95,1745.82,1895.71,2170.71,600.24,613.85,17.68,0000 0000 0000 0000 000000
2017-01-13 00:35:41,0.10,6.15,0.00,21.15,25.45,28.90,14.99,49.27,1040.10,2032.97,1744.85,1894.94,2169.81,599.89,613.40,17.73,0000 0000 0000 0000 000000
2017-01-13 00:40:43,0.11,6.16,0.00,21.14,25.45,28.93,14.95,49.31,1040.07,2032.93,1743.87,1894.11,2168.96,599.83,613.63,17.78,0000 0000 0000 0000 000000
2017-01-13 00:45:44,0.14,6.16,0.00,21.14,25.45,28.89,14.95,49.33,1040.07,2032.96,1742.81,1893.39,2168.11,599.87,613.45,17.83,0000 0000 0000 0000 000000
2017-01-13 00:50:45,0.07,6.17,0.00,21.14,25.45,28.87,15.00,49.25,1040.07,2032.99,1742.01,1892.89,2167.39,600.10,613.73,17.88,0000 0000 0000 0000 000000
2017-01-13 00:55:47,0.11,6.18,0.00,21.16,25.45,28.88,14.96,49.21,1040.08,2032.97,1741.19,1892.08,2166.51,599.93,613.50,17.93,0000 0000 0000 0000 000000
2017-01-13 01:00:48,0.10,6.18,0.00,21.17,25.45,28.92,15.00,49.23,1040.09,2032.97,1740.37,1891.55,2165.79,600.13,613.71,17.98,0000 0000 0000 0000 000000
2017-01-13 01:05:49,0.08,6.18,0.00,21.18,25.45,28.84,15.02,49.23,1040.12,2032.97,1739.45,1890.96,2165.01,600.16,613.66,18.03,0000 0000 0000 0000 000000
2017-01-13 01:10:51,0.13,6.19,0.00,21.19,25.45,28.93,15.01,49.22,1040.09,2032.97,1738.48,1890.15,2164.23,600.06,613.53,18.08,0000 0000 0000 0000 000000
2017-01-13 01:15:52,0.11,6.19,0.00,21.18,25.47,28.91,14.94,49.18,1040.10,2032.97,1737.63,1889.52,2163.34,599.83,613.48,18.13,0000 0000 0000 0000 000000
2017-01-13 01:20:53,0.08,6.20,0.00,21.20,25.47,28.95,14.94,49.23,1040.09,2032.98,1736.78,1888.93,2162.49,600.08,613.68,18.18,0000 0000 0000 0000 000000
2017-01-13 01:25:55,0.11,6.21,0.00,21.19,25.47,28.96,14.97,49.16,1040.08,2032.95,1735.85,1888.09,2161.71,600.11,613.76,18.23,0000 0000 0000 0000 000000
2017-01-13 01:30:56,0.10,6.21,0.00,21.19,25.47,28.99,15.00,49.21,1040.08,2032.97,1734.92,1887.62,2160.94,599.86,613.44,18.28,0000 0000 0000 0000 000000
2017-01-13 01:35:58,0.09,6.22,0.00,21.20,25.47,28.93,14.93,49.19,1040.07,2032.95,1734.00,1886.90,2160.08,599.83,613.42,18.33,0000 0000 0000 0000 000000
2017-01-13 01:40:59,0.12,6.22,0.00,21.21,25.47,28.98,14.97,49.27,1040.06,2032.96,1733.12,1886.06,2159.31,599.77,613.21,18.38,0000 0000 0000 0000 000000
2017-01-13 01:46:00,0.11,6.23,0.00,21.21,25.49,29.00,14.96,49.19,1040.06,2032.91,1732.39,1885.46,2158.37,599.88,613.40,18.43,0000 0000 0000 0000 000000
2017-01-13 01:51:01,0.09,6.23,0.00,21.23,25.50,29.01,14.95,49.21,1040.06,2032.95,1731.34,1884.87,2157.66,600.12,613.55,18.48,0000 0000 0000 0000 000000
2017-01-13 01:56:02,0.11,6.24,0.00,21.25,25.50,29.01,15.04,49.29,1040.06,2032.95,1730.46,1884.05,2156.82,600.16,613.53,18.53,0000 0000 0000 0000 000000
2017-01-13 02:01:04,0.07,6.24,0.00,21.27,25.50,29.05,14.90,49.25,1040.06,2032.73,1729.67,1883.34,2155.92,599.71,613.05,18.58,0000 0000 0000 0000 000000
2017-01-13 02:06:05,0.04,6.25,0.00,21.26,25.50,29.04,14.90,49.19,1040.06,2032.61,1728.97,1882.89,2155.06,599.44,612.86,18.63,0000 0000 0000 0000 000000
2017-01-13 02:11:06,0.09,6.25,0.00,21.26,25.50,29.03,14.98,49.13,1040.06,2032.26,1728.10,1882.07,2154.20,599.87,613.24,18.68,0000 0000 0000 0000 000000
2017-01-13 02:16:08,0.10,6.25,0.00,21.27,25.51,29.06,15.03,49.13,1040.06,2032.15,1727.30,1881.54,2153.51,600.06,613.53,18.73,0000 0000 0000 0000 000000
2017-01-13 02:21:09,0.07,6.26,0.00,21.28,25.52,29.06,15.06,49.26,1040.06,2032.11,1726.55,1880.95,2152.76,599.85,613.24,18.78,0000 0000 0000 0000 000000
2017-01-13 02:26:10,0.09,6.26,0.00,21.30,25.52,29.06,15.01,49.13,1040.06,2032.06,1725.75,1880.14,2151.99,600.05,613.51,18.83,0000 0000 0000 0000 000000
2017-01-13 02:31:11,0.09,6.27,0.00,21.30,25.52,29.06,15.05,49.19,1040.05,2032.10,1724.91,1879.72,2151.13,600.42,613.85,18.88,0000 0000 0000 0000 000000
2017-01-13 02:36:13,0.10,6.27,0.00,21.30,25.52,29.05,14.93,49.24,1040.02,2032.08,1723.99,1879.00,2150.40,600.08,613.36,18.94,0000 0000 0000 0000 000000
2017-01-13 02:41:14,0.12,6.28,0.00,21.31,25.52,29.07,14.96,49.15,1040.03,2032.07,1723.00,1878.21,2149.67,599.97,613.24,18.99,0000 0000 0000 0000 000000
2017-01-13 02:46:15,0.08,6.28,0.00,21.33,25.52,29.07,14.96,49.11,1040.00,2032.05,1722.10,1877.73,2148.87,599.61,612.80,19.04,0000 0000 0000 0000 000000
2017-01-13 02:51:17,0.10,6.29,0.00,21.34,25.52,29.09,14.90,49.08,1040.03,2032.04,1721.22,1877.01,2148.05,599.86,613.17,19.09,0000 0000 0000 0000 000000
2017-01-13 02:56:18,0.13,6.29,0.00,21.35,25.52,29.09,14.92,49.00,1040.04,2032.03,1720.31,1876.28,2147.30,600.14,613.52,19.14,0000 0000 0000 0000 000000
2017-01-13 03:01:19,0.10,6.30,0.00,21.35,25.52,29.10,14.90,49.07,1040.05,2032.03,1719.49,1875.72,2146.51,599.99,613.26,19.19,0000 0000 0000 0000 000000
2017-01-13 03:06:21,0.05,6.30,0.00,21.36,25.54,29.11,14.98,49.04,1040.05,2032.03,1718.95,1875.04,2145.74,600.01,613.26,19.24,0000 0000 0000 0000 000000
2017-01-13 03:11:22,0.11,6.31,0.00,21.38,25.55,29.08,14.94,49.04,1040.05,2032.01,1718.06,1874.52,2144.97,599.93,613.00,19.29,0000 0000 0000 0000 000000
2017-01-13 03:16:23,0.09,6.31,0.00,21.37,25.55,29.11,14.96,49.22,1040.04,2032.00,1717.05,1873.90,2144.12,599.80,612.89,19.34,0000 0000 0000 0000 000000
2017-01-13 03:21:24,0.13,6.32,0.00,21.38,25.55,29.17,15.03,49.12,1040.04,2032.00,1715.96,1873.07,2143.36,600.18,613.30,19.39,0000 0000 0000 0000 000000
2017-01-13 03:26:25,0.11,6.33,0.00,21.39,25.55,29.14,14.98,49.13,1040.04,2032.01,1715.04,1872.35,2142.68,599.82,612.98,19.44,0000 0000 0000 0000 000000
2017-01-13 03:31:27,0.08,6.33,0.00,21.40,25.55,29.15,15.00,49.08,1040.05,2032.02,1714.13,1871.88,2141.84,599.97,613.06,19.49,0000 0000 0000 0000 000000
2017-01-13 03:36:28,0.11,6.34,0.00,21.40,25.57,29.14,14.95,49.07,1040.05,2032.00,1713.39,1871.08,2141.00,600.15,613.28,19.54,0000 0000 0000 0000 000000
2017-01-13 03:41:29,0.11,6.34,0.00,21.41,25.57,29.16,14.94,49.08,1040.05,2032.00,1712.64,1870.55,2140.13,599.66,612.89,19.59,0000 0000 0000 0000 000000
2017-01-13 03:46:30,0.07,6.35,0.00,21.42,25.57,29.16,14.99,49.16,1040.05,2032.00,1711.75,1869.95,2139.40,600.21,613.16,19.64,0000 0000 0000 0000 000000
2017-01-13 03:51:32,0.11,6.35,0.00,21.42,25.58,29.17,14.94,49.05,1040.06,2032.00,1710.85,1869.14,2138.65,599.82,613.04,19.69,0000 0000 0000 0000 000000
2017-01-13 03:56:33,0.09,6.36,0.00,21.43,25.60,29.18,14.94,49.14,1040.06,2032.00,1709.98,1868.63,2137.87,599.77,612.92,19.74,0000 0000 0000 0000 000000
2017-01-13 04:01:34,0.09,6.36,0.00,21.44,25.60,29.20,14.93,49.09,1040.06,2032.00,1709.11,1868.00,2137.03,599.88,612.91,19.79,0000 0000 0000 0000 000000
2017-01-13 04:06:35,0.13,6.37,0.00,21.44,25.60,29.21,15.00,49.13,1040.06,2032.00,1708.21,1867.19,2136.17,600.25,613.23,19.84,0000 0000 0000 0000 000000
2017-01-13 04:11:37,0.11,6.37,0.00,21.44,25.61,29.20,14.97,49.18,1040.06,2032.00,1707.38,1866.65,2135.46,600.10,613.06,19.89,0000 0000 0000 0000 000000
2017-01-13 04:16:38,0.08,6.38,0.00,21.45,25.62,29.22,14.92,49.13,1040.10,2032.00,1706.56,1866.00,2134.70,599.53,612.45,19.94,0000 0000 0000 0000 000000
2017-01-13 04:21:39,0.12,6.38,0.00,21.47,25.62,29.22,14.96,49.11,1040.10,2032.00,1705.60,1865.27,2133.86,599.97,612.93,19.99,0000 0000 0000 0000 000000
2017-01-13 04:26:41,0.15,6.39,0.00,21.49,25.63,29.24,15.04,49.09,1040.09,2032.00,1704.22,1864.32,2132.77,600.44,613.38,20.04,0000 0000 0000 0000 000000
2017-01-13 04:31:42,0.07,6.40,0.00,21.49,25.65,29.21,14.96,49.10,1040.09,2032.00,1703.54,1863.84,2131.88,600.03,612.96,20.09,0000 0000 0000 0000 000000
2017-01-13 04:36:43,0.12,6.40,0.00,21.50,25.65,29.23,15.01,49.13,1040.07,2031.99,1702.53,1863.04,2131.05,599.95,612.86,20.14,0000 0000 0000 0000 000000
2017-01-13 04:41:44,0.11,6.41,0.00,21.49,25.66,29.27,14.97,49.15,1040.08,2031.98,1701.73,1862.34,2130.20,599.81,612.75,20.19,0000 0000 0000 0000 000000
2017-01-13 04:46:46,0.24,6.42,0.00,21.49,25.67,29.28,14.93,49.12,1040.09,2031.97,1699.94,1861.17,2128.83,599.95,612.87,20.24,0000 0000 0000 0000 000000
2017-01-13 04:51:47,0.43,6.44,0.00,21.51,25.67,29.27,14.91,49.05,1040.11,2031.96,1696.01,1858.44,2125.72,599.92,612.78,20.29,0000 0000 0000 0000 000000
2017-01-13 04:56:48,0.13,6.45,0.00,21.51,25.67,29.26,14.97,49.04,1040.16,2031.86,1694.69,1857.16,2124.28,599.87,612.87,20.34,0000 0000 0000 0000 000000
2017-01-13 05:01:49,0.12,6.45,0.00,21.51,25.67,29.26,14.98,48.98,1040.14,2031.83,1693.54,1856.57,2123.54,600.10,613.08,20.39,0000 0000 0000 0000 000000
2017-01-13 05:06:51,0.09,6.46,0.00,21.52,25.68,29.25,14.93,49.04,1040.10,2031.94,1692.40,1855.97,2122.86,600.10,612.93,20.44,0000 0000 0000 0000 000000
2017-01-13 05:11:52,0.14,6.47,0.00,21.54,25.69,29.26,15.02,49.08,1040.08,2031.96,1691.19,1855.12,2122.03,599.98,612.81,20.49,0000 0000 0000 0000 000000
2017-01-13 05:16:53,0.08,6.47,0.00,21.54,25.70,29.29,14.94,49.07,1040.07,2031.96,1690.64,1854.80,2121.18,600.18,612.97,20.54,0000 0000 0000 0000 000000
2017-01-13 05:21:54,0.11,6.48,0.00,21.54,25.70,29.29,14.95,49.16,1040.06,2031.94,1689.64,1854.04,2120.36,599.79,612.65,20.59,0000 0000 0000 0000 000000
2017-01-13 05:26:56,0.12,6.48,0.00,21.55,25.70,29.27,14.99,49.11,1040.06,2031.93,1688.70,1853.36,2119.57,600.01,612.80,20.64,0000 0000 0000 0000 000000
2017-01-13 05:31:57,0.13,6.49,0.00,21.54,25.70,29.28,14.93,49.07,1040.06,2031.93,1687.59,1852.67,2118.70,599.58,612.43,20.69,0000 0000 0000 0000 000000
2017-01-13 05:36:58,0.10,6.50,0.00,21.55,25.70,29.27,15.02,49.14,1040.06,2031.94,1686.45,1851.91,2117.90,600.05,612.94,20.74,0000 0000 0000 0000 000000
2017-01-13 05:41:59,0.10,6.50,0.00,21.56,25.70,29.29,14.94,49.15,1040.06,2031.96,1685.73,1851.10,2117.06,599.86,612.48,20.79,0000 0000 0000 0000 000000
2017-01-13 05:47:01,0.10,6.51,0.00,21.56,25.70,29.26,14.93,49.22,1040.06,2031.91,1684.89,1850.56,2116.17,599.76,612.51,20.84,0000 0000 0000 0000 000000
2017-01-13 05:52:02,0.06,6.51,0.00,21.57,25.71,29.26,14.95,49.29,1040.06,2031.69,1683.96,1849.95,2115.36,599.86,612.72,20.89,0000 0000 0000 0000 000000
2017-01-13 05:57:03,0.13,6.52,0.00,21.58,25.72,29.25,14.92,49.19,1040.05,2031.67,1682.97,1849.11,2114.64,599.88,612.70,20.94,0000 0000 0000 0000 000000
2017-01-13 06:02:04,0.11,6.52,0.00,21.57,25.72,29.28,14.99,49.31,1040.05,2031.45,1681.82,1848.49,2113.72,600.00,612.80,20.99,0000 0000 0000 0000 000000
2017-01-13 06:07:05,0.11,6.53,0.00,21.56,25.72,29.28,14.98,49.20,1040.05,2031.45,1680.74,1847.81,2112.93,599.95,612.70,21.04,0000 0000 0000 0000 000000
2017-01-13 06:12:07,0.13,6.54,0.00,21.57,25.72,29.25,15.05,49.16,1040.05,2031.72,1679.81,1847.03,2112.08,600.19,612.82,21.09,0000 0000 0000 0000 000000
2017-01-13 06:17:08,0.12,6.54,0.00,21.57,25.72,29.28,14.99,49.18,1040.05,2031.67,1678.91,1846.25,2111.22,600.02,612.70,21.14,0000 0000 0000 0000 000000
2017-01-13 06:22:09,0.05,6.54,0.00,21.57,25.73,29.29,14.91,49.22,1040.05,2031.52,1678.06,1845.76,2110.68,599.93,612.62,21.19,0000 0000 0000 0000 000000
2017-01-13 06:27:10,0.07,6.55,0.00,21.59,25.74,29.29,14.91,49.33,1040.05,2031.31,1677.22,1845.03,2109.92,599.91,612.54,21.24,0000 0000 0000 0000 000000
2017-01-13 06:32:12,0.11,6.55,0.00,21.58,25.75,29.31,14.98,49.28,1040.05,2031.11,1676.36,1844.37,2109.08,600.00,612.58,21.29,0000 0000 0000 0000 000000
2017-01-13 06:37:13,0.06,6.56,0.00,21.58,25.75,29.32,14.99,49.27,1040.05,2031.12,1675.77,1843.97,2108.39,600.06,612.87,21.34,0000 0000 0000 0000 000000
2017-01-13 06:42:14,0.09,6.56,0.00,21.57,25.75,29.30,15.03,49.17,1040.05,2031.07,1675.02,1843.17,2107.75,599.59,612.31,21.39,0000 0000 0000 0000 000000
2017-01-13 06:47:16,0.09,6.57,0.00,21.59,25.76,29.32,14.95,49.17,1040.04,2031.02,1674.18,1842.70,2106.94,599.80,612.48,21.44,0000 0000 0000 0000 000000
2017-01-13 06:52:17,0.10,6.57,0.00,21.57,25.77,29.35,14.90,49.14,1040.05,2031.03,1673.16,1842.01,2106.06,599.81,612.63,21.49,0000 0000 0000 0000 000000
2017-01-13 06:57:18,0.13,6.58,0.00,21.58,25.77,29.28,14.96,49.05,1040.05,2031.02,1672.23,1841.25,2105.20,600.23,612.78,21.54,0000 0000 0000 0000 000000
2017-01-13 07:02:20,0.11,6.58,0.00,21.58,25.77,29.30,14.95,49.24,1040.05,2031.04,1671.13,1840.63,2104.52,600.11,612.89,21.59,0000 0000 0000 0000 000000
2017-01-13 07:07:21,0.08,6.59,0.00,21.58,25.77,29.30,14.98,49.12,1040.05,2031.02,1670.26,1840.01,2103.86,600.16,612.81,21.64,0000 0000 0000 0000 000000
2017-01-13 07:12:22,0.13,6.59,0.00,21.58,25.77,29.33,14.99,49.18,1040.04,2031.05,1669.37,1839.36,2103.05,599.85,612.39,21.69,0000 0000 0000 0000 000000
2017-01-13 07:17:23,0.08,6.60,0.00,21.58,25.79,29.31,14.91,49.23,1040.05,2031.04,1668.51,1838.89,2102.25,599.72,612.35,21.74,0000 0000 0000 0000 000000
2017-01-13 07:22:24,0.09,6.60,0.00,21.59,25.80,29.31,14.99,49.18,1040.05,2031.04,1667.86,1838.08,2101.69,600.13,612.76,21.79,0000 0000 0000 0000 000000
2017-01-13 07:27:25,0.09,6.61,0.00,21.60,25.80,29.34,14.95,49.08,1040.05,2031.00,1667.07,1837.64,2100.92,600.06,612.74,21.84,0000 0000 0000 0000 000000
2017-01-13 07:32:27,0.09,6.61,0.00,21.60,25.80,29.34,14.98,49.23,1040.05,2031.01,1666.45,1837.02,2100.08,600.02,612.76,21.89,0000 0000 0000 0000 000000
2017-01-13 07:37:28,0.13,6.62,0.00,21.60,25.80,29.34,14.96,49.13,1040.05,2031.00,1665.47,1836.38,2099.54,600.06,612.59,21.94,0000 0000 0000 0000 000000
2017-01-13 07:42:29,0.05,6.62,0.00,21.60,25.81,29.36,14.94,49.23,1040.06,2031.01,1664.70,1835.99,2098.94,599.85,612.48,21.99,0000 0000 0000 0000 000000
2017-01-13 07:47:30,0.10,6.63,0.00,21.62,25.82,29.34,15.04,49.13,1040.06,2031.00,1663.96,1835.24,2098.14,600.10,612.73,22.04,0000 0000 0000 0000 000000
2017-01-13 07:52:32,0.05,6.63,0.00,21.62,25.82,29.36,14.95,49.27,1040.06,2031.00,1663.30,1834.99,2097.63,599.98,612.53,22.09,0000 0000 0000 0000 000000
2017-01-13 07:57:33,0.06,6.63,0.00,21.62,25.82,29.34,15.04,49.18,1040.07,2031.00,1663.01,1834.55,2097.02,600.12,612.75,22.14,0000 0000 0000 0000 000000
2017-01-13 08:02:35,0.09,6.64,0.00,21.63,25.82,29.35,15.00,49.20,1040.06,2031.00,1662.26,1834.01,2096.34,600.20,612.82,22.20,0000 0000 0000 0000 000000
2017-01-13 08:07:36,0.05,6.64,0.00,21.61,25.82,29.37,14.91,49.10,1040.06,2031.00,1661.82,1833.56,2095.99,599.98,612.63,22.25,0000 0000 0000 0000 000000
2017-01-13 08:12:37,0.08,6.65,0.00,21.60,25.82,29.34,14.99,49.21,1040.06,2030.99,1661.05,1833.02,2095.29,599.88,612.68,22.30,0000 0000 0000 0000 000000
2017-01-13 08:17:38,0.08,6.65,0.00,21.62,25.82,29.36,14.93,49.17,1040.06,2030.99,1660.40,1832.67,2094.90,600.09,612.62,22.35,0000 0000 0000 0000 000000
2017-01-13 08:22:39,0.07,6.66,0.00,21.62,25.82,29.36,14.93,49.23,1040.06,2030.99,1659.79,1832.02,2094.10,599.77,612.48,22.40,0000 0000 0000 0000 000000
2017-01-13 08:27:40,0.08,6.66,0.00,21.64,25.82,29.36,14.99,49.23,1040.06,2030.99,1659.01,1831.67,2093.69,599.95,612.69,22.45,0000 0000 0000 0000 000000
2017-01-13 08:32:41,0.08,6.66,0.00,21.66,25.82,29.38,14.99,49.18,1040.06,2030.99,1658.20,1831.02,2093.02,599.98,612.45,22.50,0000 0000 0000 0000 000000
2017-01-13 08:37:42,0.05,6.67,0.00,21.65,25.83,29.36,15.02,49.15,1040.06,2030.99,1657.91,1830.80,2092.55,599.91,612.41,22.55,0000 0000 0000 0000 000000
2017-01-13 08:42:43,0.16,6.67,0.00,21.65,25.84,29.35,15.00,49.11,1040.07,2030.99,1656.64,1830.03,2091.58,600.08,612.63,22.60,0000 0000 0000 0000 000000
2017-01-13 08:47:45,0.11,6.68,0.00,21.67,25.85,29.38,14.93,49.13,1040.07,2030.99,1655.58,1829.17,2091.00,599.79,612.39,22.65,0000 0000 0000 0000 000000
2017-01-13 08:52:46,0.04,6.68,0.00,21.66,25.85,29.41,15.06,49.18,1040.06,2030.99,1654.99,1828.98,2090.35,600.35,612.87,22.70,0000 0000 0000 0000 000000
2017-01-13 08:57:47,0.11,6.69,0.00,21.66,25.85,29.41,15.00,49.18,1040.06,2030.99,1654.25,1828.32,2089.90,600.14,612.67,22.75,0000 0000 0000 0000 000000
2017-01-13 09:02:48,0.06,6.69,0.00,21.67,25.85,29.43,14.92,49.25,1040.07,2030.98,1653.64,1827.98,2089.10,599.90,612.38,22.80,0000 0000 0000 0000 000000
2017-01-13 09:07:49,0.08,6.69,0.00,21.66,25.85,29.43,14.91,49.28,1040.07,2030.99,1652.98,1827.38,2088.69,599.83,612.38,22.85,0000 0000 0000 0000 000000
2017-01-13 09:12:51,0.07,6.70,0.00,21.67,25.86,29.39,14.91,49.18,1040.09,2030.98,1652.12,1826.98,2088.01,599.99,612.51,22.90,0000 0000 0000 0000 000000
2017-01-13 09:17:52,0.08,6.70,0.00,21.69,25.87,29.42,14.95,49.24,1040.09,2030.98,1651.94,1826.42,2087.38,599.73,612.38,22.95,0000 0000 0000 0000 000000
2017-01-13 09:22:54,0.06,6.71,0.00,21.66,25.87,29.42,14.94,49.16,1040.11,2030.98,1651.14,1826.01,2086.99,599.66,612.22,23.00,0000 0000 0000 0000 000000
2017-01-13 09:27:55,0.07,6.71,0.00,21.67,25.87,29.42,14.99,49.21,1040.11,2030.98,1650.78,1825.71,2086.27,600.16,612.65,23.05,0000 0000 0000 0000 000000
2017-01-13 09:32:56,0.07,6.72,0.00,21.69,25.87,29.41,14.92,49.20,1040.08,2030.98,1650.04,1825.04,2085.92,599.98,612.59,23.10,0000 0000 0000 0000 000000
2017-01-13 09:37:58,0.06,6.72,0.00,21.67,25.87,29.42,14.97,49.20,1040.14,2030.98,1649.68,1824.95,2085.14,600.01,612.51,23.15,0000 0000 0000 0000 000000
2017-01-13 09:42:59,0.09,6.72,0.00,21.67,25.87,29.42,15.00,49.17,1040.31,2030.95,1648.93,1824.15,2084.79,600.29,612.99,23.20,0000 0000 0000 0000 000000
2017-01-13 09:48:00,0.07,6.73,0.00,21.69,25.88,29.42,15.05,49.17,1040.42,2030.95,1648.06,1823.93,2084.05,600.40,613.07,23.25,0000 0000 0000 0000 000000
2017-01-13 09:53:01,0.11,6.73,0.00,21.68,25.89,29.41,14.95,49.17,1040.52,2030.96,1647.50,1823.19,2083.70,599.68,612.45,23.30,0000 0000 0000 0000 000000
2017-01-13 09:58:03,0.06,6.73,0.00,21.69,25.90,29.43,14.93,49.30,1040.49,2030.95,1646.67,1822.88,2083.02,599.89,612.73,23.35,0000 0000 0000 0000 000000
2017-01-13 10:03:04,0.10,6.74,0.00,21.69,25.90,29.45,14.97,49.34,1040.47,2030.97,1645.99,1822.07,2082.36,599.87,612.60,23.40,0000 0000 0000 0000 000000
2017-01-13 10:08:06,0.06,6.74,0.00,21.69,25.90,29.43,14.96,49.23,1040.47,2030.98,1645.27,1821.92,2081.91,600.24,612.98,23.45,0000 0000 0000 0000 000000
2017-01-13 10:13:07,0.07,6.75,0.00,21.70,25.90,29.43,14.94,49.25,1040.54,2030.96,1644.96,1821.13,2081.09,599.61,612.39,23.50,0000 0000 0000 0000 000000
2017-01-13 10:18:08,0.08,6.75,0.00,21.70,25.92,29.46,14.94,49.19,1040.54,2030.96,1644.12,1820.96,2080.56,599.86,612.58,23.55,0000 0000 0000 0000 000000
2017-01-13 10:23:09,0.10,6.76,0.00,21.71,25.92,29.47,14.98,49.31,1040.52,2030.94,1643.62,1820.21,2079.95,600.12,612.82,23.60,0000 0000 0000 0000 000000
2017-01-13 10:28:11,0.09,6.76,0.00,21.72,25.92,29.49,14.94,49.17,1040.40,2030.86,1642.67,1819.82,2079.10,600.07,612.72,23.65,0000 0000 0000 0000 000000
2017-01-13 10:33:12,0.09,6.77,0.00,21.72,25.92,29.47,15.00,49.35,1040.24,2030.89,1641.79,1819.05,2078.60,599.96,612.45,23.70,0000 0000 0000 0000 000000
2017-01-13 10:38:14,0.08,6.77,0.00,21.73,25.93,29.48,14.90,49.30,1040.36,2030.91,1641.03,1818.69,2077.98,600.33,612.87,23.75,0000 0000 0000 0000 000000
2017-01-13 10:43:15,0.10,6.78,0.00,21.72,25.94,29.49,14.95,49.39,1040.40,2030.86,1640.31,1818.04,2077.22,599.86,612.41,23.80,0000 0000 0000 0000 000000
2017-01-13 10:48:16,0.04,6.78,0.00,21.75,25.95,29.50,14.90,49.24,1040.28,2030.87,1639.95,1817.73,2076.84,600.10,612.51,23.85,0000 0000 0000 0000 000000
2017-01-13 10:53:17,0.05,6.78,0.00,21.76,25.95,29.51,14.95,49.22,1040.41,2030.66,1639.44,1817.06,2076.04,599.97,612.42,23.90,0000 0000 0000 0000 000000
2017-01-13 10:58:19,0.14,6.78,0.00,21.77,25.96,29.52,14.99,49.16,1040.39,2030.51,1638.32,1816.58,2075.39,600.36,612.70,23.95,0000 0000 0000 0000 000000
2017-01-13 11:03:20,0.02,6.79,0.00,21.78,25.97,29.51,14.97,49.18,1040.16,2030.42,1637.69,1816.01,2074.93,600.14,612.48,24.00,0000 0000 0000 0000 000000
2017-01-13 11:08:21,0.10,6.79,0.00,21.77,25.97,29.52,14.94,49.25,1040.07,2030.51,1637.01,1815.64,2074.12,600.02,612.36,24.05,0000 0000 0000 0000 000000
2017-01-13 11:13:23,0.06,6.80,0.00,21.77,25.97,29.51,14.91,49.25,1040.07,2030.20,1636.27,1815.02,2073.52,599.97,612.22,24.10,0000 0000 0000 0000 000000
2017-01-13 11:18:24,0.05,6.80,0.00,21.80,25.98,29.55,14.96,49.15,1040.06,2030.07,1635.85,1814.63,2072.98,599.99,612.34,24.15,0000 0000 0000 0000 000000
2017-01-13 11:23:25,0.10,6.80,0.00,21.78,25.99,29.54,15.00,49.34,1040.06,2030.11,1635.05,1814.02,2072.23,599.97,612.27,24.20,0000 0000 0000 0000 000000
2017-01-13 11:28:26,0.08,6.81,0.00,21.78,26.00,29.54,14.96,49.27,1040.06,2030.10,1634.43,1813.62,2071.86,599.75,612.16,24.25,0000 0000 0000 0000 000000
2017-01-13 11:33:28,0.08,6.81,0.00,21.79,26.00,29.54,15.00,49.26,1040.06,2030.08,1633.63,1813.01,2071.08,600.12,612.45,24.30,0000 0000 0000 0000 000000
2017-01-13 11:38:29,0.08,6.82,0.00,21.80,26.00,29.53,14.96,49.24,1040.05,2030.04,1633.02,1812.61,2070.47,599.99,612.12,24.35,0000 0000 0000 0000 000000
2017-01-13 11:43:30,0.07,6.82,0.00,21.79,26.00,29.53,14.95,49.23,1040.05,2030.03,1632.38,1812.02,2069.86,599.78,612.04,24.40,0000 0000 0000 0000 000000
2017-01-13 11:48:32,0.06,6.82,0.00,21.80,26.01,29.53,14.93,49.09,1040.05,2030.02,1632.02,1811.72,2069.06,599.89,612.26,24.45,0000 0000 0000 0000 000000
2017-01-13 11:53:33,0.11,6.83,0.00,21.80,26.02,29.56,14.84,49.12,1040.01,2030.00,1631.23,1811.02,2068.51,599.72,611.97,24.50,0000 0000 0000 0000 000000
2017-01-13 11:58:34,0.10,6.83,0.00,21.80,26.02,29.55,14.94,49.12,1039.97,2030.00,1630.30,1810.51,2067.96,600.14,612.35,24.55,0000 0000 0000 0000 000000
2017-01-13 12:03:36,0.09,6.84,0.00,21.82,26.02,29.54,14.95,49.13,1039.69,2030.00,1629.46,1810.01,2067.14,599.95,612.00,24.60,0000 0000 0000 0000 000000
2017-01-13 12:08:37,0.09,6.84,0.00,21.81,26.02,29.58,14.96,49.16,1039.60,2030.00,1628.90,1809.38,2066.64,599.97,611.95,24.65,0000 0000 0000 0000 000000
2017-01-13 12:13:38,0.08,6.85,0.00,21.81,26.02,29.53,14.92,49.17,1039.61,2030.00,1628.04,1808.85,2065.86,600.09,612.16,24.70,0000 0000 0000 0000 000000
2017-01-13 12:18:40,0.16,6.86,0.00,21.81,26.02,29.54,14.87,49.06,1039.76,2030.00,1626.97,1807.93,2064.77,599.85,611.88,24.75,0000 0000 0000 0000 000000
2017-01-13 12:23:41,0.15,6.86,0.00,21.81,26.02,29.51,14.92,48.88,1039.87,2030.00,1625.93,1807.04,2063.49,599.79,611.83,24.80,0000 0000 0000 0000 000000
2017-01-13 12:28:42,0.10,6.87,0.00,21.79,26.02,29.58,14.98,48.97,1039.75,2029.99,1625.08,1806.24,2062.94,599.99,612.14,24.85,0000 0000 0000 0000 000000
2017-01-13 12:33:43,0.09,6.87,0.00,21.80,26.02,29.57,14.99,49.03,1039.65,2029.99,1624.28,1805.94,2062.13,600.04,611.93,24.90,0000 0000 0000 0000 000000
2017-01-13 12:38:45,0.12,6.88,0.00,21.80,26.02,29.56,14.97,49.14,1039.60,2029.99,1623.44,1805.15,2061.65,600.20,612.28,24.95,0000 0000 0000 0000 000000
2017-01-13 12:43:46,0.08,6.88,0.00,21.80,26.02,29.51,15.00,49.11,1039.59,2029.99,1622.52,1804.79,2061.00,600.26,612.32,25.00,0000 0000 0000 0000 000000
2017-01-13 12:48:47,0.13,6.89,0.00,21.80,26.02,29.53,14.87,49.15,1039.58,2029.99,1621.65,1803.84,2060.09,599.89,612.09,25.05,0000 0000 0000 0000 000000
2017-01-13 12:53:48,1.20,6.93,0.00,21.81,26.02,29.56,14.92,49.16,1039.57,2029.99,1615.14,1798.23,2053.69,599.86,611.86,25.10,0000 0000 0000 0000 000000